Zurück zum Katalog

STARLINK-3919

AktivKommunikationVLEO
NORAD 52580·PAYLOAD·🇺🇸 United States

Gestartet May 13, 2022 von Vandenberg Space Force Base

Loading…

Nächste Überflüge (nächste 24 Stunden)

TLE

AktuellSource: CelesTrak SupGP

Epoche: Sep 15, 2026, 01:53 UTC

1 52580C 22051AW  26258.07895833  .00024779  00000+0  79694-3 0  2580
2 52580  53.1597 359.0685 0000970  91.9393 130.1855 15.31685276    16

Verfolge STARLINK-3919 in Echtzeit mit AllMySat

Download on the App Store